AUA199Y EDDM-LOWW

Flight info

Callsign AUA199Y
Flight time N/A
Altitude 25000
Route KIRDI3S/26L KIRDI DCT BUWOQ DCT MASUR MASUR3W
Aircraft A320/M-SDE3FGHIRWY/LB1

Departure

Time N/A
Airport Munich Airport (EDDM)

Arrival

Time 2026-05-06 18:44
Airport Vienna International Airport (LOWW)
Time Latitude Longitude Altitude Speed Heading
2026-05-06 18:16 48.32398 13.76060 24708 ft 440 kts 83°
2026-05-06 18:16 48.32951 13.80517 24710 ft 440 kts 83°
2026-05-06 18:17 48.33511 13.85034 24711 ft 440 kts 83°
2026-05-06 18:17 48.34072 13.89561 24712 ft 440 kts 84°
2026-05-06 18:17 48.34629 13.94082 24714 ft 440 kts 84°
2026-05-06 18:17 48.35183 13.98596 24716 ft 440 kts 84°
2026-05-06 18:18 48.35737 14.03122 24715 ft 440 kts 84°
2026-05-06 18:18 48.36289 14.07641 24718 ft 440 kts 84°
2026-05-06 18:18 48.36837 14.12194 24719 ft 442 kts 84°
2026-05-06 18:18 48.37380 14.16734 24720 ft 440 kts 84°
2026-05-06 18:19 48.37908 14.21187 24720 ft 439 kts 84°
2026-05-06 18:19 48.38441 14.25705 24720 ft 438 kts 84°
2026-05-06 18:19 48.38971 14.30209 24719 ft 437 kts 84°
2026-05-06 18:19 48.39499 14.34715 24718 ft 437 kts 84°
2026-05-06 18:20 48.40026 14.39218 24712 ft 437 kts 84°
2026-05-06 18:20 48.40550 14.43721 24714 ft 437 kts 84°
2026-05-06 18:20 48.41071 14.48219 24709 ft 436 kts 84°
2026-05-06 18:20 48.41589 14.52714 24710 ft 436 kts 84°
2026-05-06 18:21 48.42105 14.57200 24713 ft 445 kts 84°
2026-05-06 18:21 48.42631 14.61806 24706 ft 447 kts 84°
2026-05-06 18:21 48.43156 14.66396 24300 ft 443 kts 84°
2026-05-06 18:21 48.43676 14.70943 23816 ft 439 kts 84°
2026-05-06 18:22 48.44188 14.75451 23354 ft 434 kts 84°
2026-05-06 18:22 48.44693 14.79917 22823 ft 431 kts 84°
2026-05-06 18:22 48.45192 14.84347 22308 ft 427 kts 84°
2026-05-06 18:22 48.45686 14.88745 21805 ft 424 kts 84°
2026-05-06 18:23 48.46172 14.93089 21127 ft 417 kts 84°
2026-05-06 18:23 48.46650 14.97377 20255 ft 413 kts 84°
2026-05-06 18:23 48.47117 15.01605 19757 ft 413 kts 84°
2026-05-06 18:23 48.47584 15.05850 19331 ft 409 kts 84°
2026-05-06 18:24 48.48047 15.10066 18888 ft 406 kts 84°
2026-05-06 18:24 48.48505 15.14259 18435 ft 404 kts 84°
2026-05-06 18:24 48.48960 15.18389 18267 ft 394 kts 84°
2026-05-06 18:24 48.49414 15.22400 18135 ft 383 kts 84°
2026-05-06 18:25 48.49880 15.26312 17824 ft 377 kts 83°
2026-05-06 18:25 48.50352 15.30186 17433 ft 374 kts 83°
2026-05-06 18:25 48.50821 15.34023 17062 ft 371 kts 83°
2026-05-06 18:25 48.51277 15.37773 16711 ft 367 kts 83°
2026-05-06 18:26 48.51731 15.41549 16651 ft 367 kts 84°
2026-05-06 18:26 48.51923 15.45364 16254 ft 362 kts 95°
2026-05-06 18:26 48.51730 15.49116 15877 ft 358 kts 99°
2026-05-06 18:26 48.51511 15.52845 15494 ft 356 kts 98°
2026-05-06 18:27 48.51299 15.56557 15120 ft 355 kts 98°
2026-05-06 18:27 48.51106 15.59927 14783 ft 353 kts 98°
2026-05-06 18:27 48.50899 15.63609 14415 ft 351 kts 98°
2026-05-06 18:27 48.50697 15.67259 14053 ft 348 kts 98°
2026-05-06 18:28 48.50494 15.70877 13717 ft 345 kts 98°
2026-05-06 18:28 48.50292 15.74405 13409 ft 341 kts 98°
2026-05-06 18:28 48.50083 15.77943 13063 ft 337 kts 98°
2026-05-06 18:28 48.49875 15.81454 12660 ft 335 kts 98°
2026-05-06 18:29 48.49666 15.84952 12249 ft 334 kts 98°
2026-05-06 18:29 48.49459 15.88426 11859 ft 332 kts 98°
2026-05-06 18:29 48.49252 15.91887 11493 ft 330 kts 98°
2026-05-06 18:29 48.49045 15.95327 11079 ft 329 kts 98°
2026-05-06 18:30 48.48836 15.98747 10699 ft 327 kts 98°
2026-05-06 18:30 48.48626 16.02152 10351 ft 326 kts 98°
2026-05-06 18:30 48.48419 16.05499 9987 ft 325 kts 97°
2026-05-06 18:30 48.48185 16.08866 9632 ft 322 kts 103°
2026-05-06 18:31 48.47621 16.12098 9270 ft 316 kts 113°
2026-05-06 18:31 48.46861 16.15186 8856 ft 314 kts 114°
2026-05-06 18:31 48.46099 16.18263 8463 ft 313 kts 113°
2026-05-06 18:31 48.45341 16.21323 8074 ft 311 kts 113°
2026-05-06 18:32 48.44587 16.24364 7693 ft 309 kts 114°
2026-05-06 18:32 48.43833 16.27394 7320 ft 309 kts 114°
2026-05-06 18:32 48.43079 16.30409 6996 ft 306 kts 113°
2026-05-06 18:32 48.42245 16.33344 6555 ft 303 kts 123°
2026-05-06 18:33 48.41004 16.35862 6133 ft 298 kts 137°
2026-05-06 18:33 48.39413 16.37803 5761 ft 292 kts 152°
2026-05-06 18:33 48.37624 16.39075 5433 ft 286 kts 165°
2026-05-06 18:33 48.35689 16.39568 5241 ft 271 kts 185°
2026-05-06 18:34 48.33960 16.39028 5109 ft 245 kts 205°
2026-05-06 18:34 48.32601 16.37700 5002 ft 223 kts 224°
2026-05-06 18:34 48.31701 16.35896 4983 ft 215 kts 242°
2026-05-06 18:34 48.31236 16.33755 4982 ft 218 kts 259°
2026-05-06 18:35 48.31098 16.31473 4987 ft 220 kts 262°
2026-05-06 18:35 48.30962 16.29199 4985 ft 217 kts 261°
2026-05-06 18:35 48.30868 16.27717 4979 ft 214 kts 261°
2026-05-06 18:35 48.30696 16.24755 4973 ft 215 kts 263°
2026-05-06 18:36 48.30570 16.22520 4973 ft 214 kts 261°
2026-05-06 18:36 48.30450 16.20343 4948 ft 202 kts 262°
2026-05-06 18:36 48.30326 16.18234 4961 ft 203 kts 261°
2026-05-06 18:36 48.30010 16.16182 4965 ft 201 kts 238°
2026-05-06 18:37 48.29042 16.14735 4952 ft 198 kts 213°
2026-05-06 18:37 48.27744 16.13986 4954 ft 203 kts 191°
2026-05-06 18:37 48.26322 16.14061 4965 ft 208 kts 169°
2026-05-06 18:37 48.25053 16.14974 4955 ft 198 kts 146°
2026-05-06 18:38 48.24155 16.16532 4998 ft 205 kts 125°
2026-05-06 18:38 48.23530 16.18429 4966 ft 203 kts 123°
2026-05-06 18:38 48.22919 16.20355 4980 ft 207 kts 117°
2026-05-06 18:38 48.22310 16.22271 4949 ft 202 kts 121°
2026-05-06 18:39 48.21696 16.24186 4844 ft 204 kts 121°
2026-05-06 18:39 48.21078 16.26109 4608 ft 205 kts 121°
2026-05-06 18:39 48.20458 16.28037 4341 ft 207 kts 121°
2026-05-06 18:40 48.19197 16.31956 3774 ft 207 kts 123°
2026-05-06 18:40 48.18582 16.33870 3491 ft 200 kts 123°
2026-05-06 18:40 48.17987 16.35713 3227 ft 196 kts 123°
2026-05-06 18:40 48.17408 16.37508 2970 ft 191 kts 123°
2026-05-06 18:41 48.16833 16.39284 2721 ft 188 kts 123°
2026-05-06 18:41 48.16278 16.41008 2461 ft 177 kts 124°
2026-05-06 18:41 48.15769 16.42592 2257 ft 159 kts 125°
2026-05-06 18:41 48.15306 16.44022 2033 ft 146 kts 124°
2026-05-06 18:42 48.14874 16.45352 1833 ft 139 kts 124°
2026-05-06 18:42 48.14458 16.46632 1656 ft 135 kts 126°
2026-05-06 18:42 48.14050 16.47887 1459 ft 134 kts 124°
2026-05-06 18:42 48.13643 16.49138 1282 ft 133 kts 125°
2026-05-06 18:43 48.13244 16.50367 1092 ft 134 kts 121°
2026-05-06 18:43 48.12837 16.51620 900 ft 135 kts 123°
2026-05-06 18:43 48.12428 16.52886 704 ft 135 kts 122°
2026-05-06 18:43 48.12032 16.54118 621 ft 122 kts 122°
2026-05-06 18:44 48.11725 16.55036 617 ft 74 kts 115°
2026-05-06 18:44 48.11567 16.55527 613 ft 40 kts 116°
2026-05-06 18:44 48.11505 16.55876 610 ft 27 kts 91°
2026-05-06 18:44 48.11505 16.56006 610 ft 8 kts 87°
2026-05-06 18:45 48.11508 16.56068 610 ft 5 kts 78°
2026-05-06 18:45 48.11526 16.56126 616 ft 6 kts 46°
2026-05-06 18:45 48.11558 16.56151 610 ft 5 kts 25°
2026-05-06 18:45 48.11581 16.56167 618 ft 7 kts 25°
2026-05-06 18:46 48.11631 16.56212 613 ft 5 kts 36°
2026-05-06 18:46 48.11677 16.56258 621 ft 10 kts 28°
2026-05-06 18:46 48.11728 16.56295 623 ft 9 kts 26°
2026-05-06 18:46 48.11759 16.56356 616 ft 7 kts 91°
2026-05-06 18:47 48.11735 16.56440 619 ft 13 kts 115°
2026-05-06 18:47 48.11686 16.56588 617 ft 17 kts 116°
2026-05-06 18:47 48.11631 16.56758 610 ft 19 kts 116°
2026-05-06 18:47 48.11572 16.56939 617 ft 20 kts 116°
2026-05-06 18:48 48.11511 16.57128 617 ft 17 kts 115°
2026-05-06 18:48 48.11469 16.57257 620 ft 7 kts 116°
2026-05-06 18:48 48.11473 16.57295 622 ft 2 kts 55°
2026-05-06 18:48 48.11481 16.57304 617 ft 2 kts 34°
2026-05-06 18:49 48.11496 16.57316 617 ft 3 kts 29°
2026-05-06 18:49 48.11515 16.57330 615 ft 3 kts 26°
2026-05-06 18:49 48.11530 16.57342 613 ft 2 kts 26°
2026-05-06 18:49 48.11532 16.57343 613 ft 0 kts 26°